Regional Weather Roundup
Issued by NWS

Home | Current Version | Previous Version | Graphics & Text | Print | Product List | Glossary On
Versions: 1 2 3 4 5 6 7 8 9 10 11 12 13 14 15 16 17 18 19 20 21 22 23 24 25 26 27 28 29 30 31 32 33 34 35 36 37 38 39 40 41 42 43 44 45 46 47 48 49 50
000
ASUS45 KBOU 250810
RWRCO

WEATHER ROUNDUP FOR COLORADO
NATIONAL WEATHER SERVICE DENVER/BOULDER CO
100 AM MST SUN FEB 25 2018

NOTE: "FAIR" INDICATES FEW OR NO CLOUDS BELOW 12000 FEET WITH NO
SIGNIFICANT WEATHER AND/OR OBSTRUCTIONS TO VISIBILITY.

COZ001>005-013-030-031-250900-
...NORTHWEST COLORADO...

CITY           SKY/WX    TMP DP  RH WIND       PRES   REMARKS
CRAIG          CLOUDY     9   5  84 CALM      29.92R
HAYDEN         CLOUDY    13  11  92 CALM      29.91S
MEEKER         FAIR      13   7  77 CALM      29.90S
RANGELY        FAIR      12  10  91 CALM      29.95S
RABBIT EARS PA LGT SNOW N/A N/A N/A W9G23     29.71S VSB 1
STEAMBOAT SPGS CLOUDY    14  10  86 E5        29.88S WCI   6
WALDEN         MOCLDY     9   3  78 S8        29.80S WCI  -4
$$

COZ006>008-011-250900-
...WEST CENTRAL VALLEYS...

CITY           SKY/WX    TMP DP  RH WIND       PRES   REMARKS
GRAND JUNCTION FAIR      24  21  88 SE6       29.96R WCI  17
MONTROSE       MOCLDY    25  15  66 W3        29.97S
EAGLE          MOCLDY    18  14  84 E5        29.92S WCI  11
RIFLE          MOCLDY    20  12  71 SW8       29.95S WCI  10
DELTA          FAIR      26  21  80 NE6       29.97F WCI  19
NUCLA          MOCLDY    23  16  74 SE6       30.00S WCI  16
$$

COZ017>023-064>068-250900-
...SOUTHWEST COLORADO...

CITY           SKY/WX    TMP DP  RH WIND       PRES   REMARKS
DURANGO        CLOUDY    22  15  75 S3        29.93F
CORTEZ         CLOUDY    27  13  55 W3        29.96S
PAGOSA SPRINGS CLOUDY    16  14  93 NE3       29.92F
TELLURIDE      LGT SNOW  15  10  83 NW5       29.88S WCI   7
WOLF CREEK PAS CLOUDY     1   0  92 S18G32    29.79F WCI -19
$$

COZ009-010-012-014-032>034-037-058>063-250900-
...CENTRAL COLORADO...

CITY           SKY/WX    TMP DP  RH WIND       PRES   REMARKS
ASPEN          CLOUDY    13   9  84 CALM      29.85S FOG
BUENA VISTA    CLOUDY    18   6  59 E7        29.83F WCI   8
COPPER MTN     LGT SNOW   3  -4  72 W7        29.67S WCI  -9
BERTHOUD PASS  LGT SNOW  -6 -15  65 W30G39    29.59F WCI -34
COTTONWOOD PAS LGT SNOW  16  12  86 SE5       29.77F WCI   9
GUNNISON       LGT SNOW  16  13  88 SW6       29.88S FOG     WCI   7
GRANBY         CLOUDY    13   6  73 SW9       29.81F WCI   0
KREMMLING      FAIR      18   9  68 N3        29.86S
LEADVILLE      CLOUDY     4   0  83 NE6       29.75S WCI  -7
MONARCH PASS   CLOUDY     1  -4  78 SW26G33   29.79F WCI -23
SALIDA         CLOUDY    21   8  57 SW8       29.93F WCI  12
SUNLIGHT       LGT SNOW   3   0  85 SW6       29.80S VSB 3/4 WCI  -8
WILKERSON PASS CLOUDY     1  -4  78 SW16G24   29.71F WCI -18
$$

COZ069>075-250900-
...SAN LUIS VALLEY/SANGRE DE CRISTO MOUNTAINS...

CITY           SKY/WX    TMP DP  RH WIND       PRES   REMARKS
ALAMOSA        FAIR      18   5  57 SW10      29.87F WCI   6
DEL NORTE      FAIR      17   6  62 W10       29.86F WCI   4
LA VETA PASS   CLOUDY    12   5  73 S20       29.89F WCI  -6
SAGUACHE       NOT AVBL
$$

COZ035-036-038>040-250900-
...NORTHERN COLORADO FRONT RANGE...

CITY           SKY/WX    TMP DP  RH WIND       PRES   REMARKS
DENVER INTL AP FAIR      22   3  44 S6        29.83F WCI  14
AURORA         PTCLDY    17   4  56 S8        29.83F WCI   6
FRONT RANGE AP FAIR      18  10  71 S8        29.84F WCI   7
ERIE MUNI ARPT FAIR      24   3  41 SW3       29.90S
BOULDER MUN AP FAIR      28   5  37 SW13G21   29.81F WCI  18
CENTENNIAL     FAIR      18   4  54 SE7       29.82F WCI   9
BROOMFIELD     NOT AVBL
FORT COLLINS   FAIR      20   5  52 S6        29.83F WCI  12
LONGMONT       FAIR      28   4  35 SW8       29.85S WCI  20
$$

COZ041-046-047-076>085-087-088-250900-
...PIKES PEAK/PALMER DIVIDE AND SOUTHERN FOOTHILLS...

CITY           SKY/WX    TMP DP  RH WIND       PRES   REMARKS
COLO. SPRINGS  MOCLDY    18   5  57 NE5       29.86S WCI  11
A. F. ACADEMY  FAIR      18   0  44 SE7       29.83S WCI   9
SCHRIEVER AFB  NOT AVBL
CHEYENNE MTN   FAIR      23   1  37 CALM      29.78S
ELLICOTT         N/A    N/A N/A N/A VRB3      29.84F
FALCON         FAIR      19   1  45 W5        29.84F WCI  12
FORT CARSON    FAIR      21   4  48 S7        29.86S WCI  12
LIMON          CLOUDY    14   9  80 CALM      29.87S
MONUMENT HILL  FAIR      21   0  39 SW13      29.83S WCI   9
CANON CITY     CLEAR     25   5  42 MISG      29.89R
WALSENBURG     NOT AVBL
TRINIDAD       FAIR      33   3  28 W18G30    29.82F WCI  22
$$

COZ042>045-048>051-090-091-250900-
...NORTHEAST COLORADO...

CITY           SKY/WX    TMP DP  RH WIND       PRES   REMARKS
GREELEY ARPT   FAIR      21  11  65 CALM      29.85F
AKRON          FAIR      20  10  65 W12       29.83F WCI   8
BURLINGTON     FAIR      15   9  76 SW7       29.90F WCI   5
WRAY           MOCLDY    28  16  59 SW9       29.89S WCI  20
YUMA           NOT AVBL
STERLING       MOCLDY    28  12  50 W8        29.85S WCI  20
HOLYOKE        FAIR      30  14  51 SW8       29.86R WCI  23
FORT MORGAN    FAIR      20   8  59 W6        29.86F WCI  12
$$

COZ086-089-092>099-250900-
...SOUTHEAST COLORADO...

CITY           SKY/WX    TMP DP  RH WIND       PRES   REMARKS
PUEBLO         FAIR      17   6  62 N3        29.91R
LA JUNTA       FAIR      19   8  62 NE9       29.91R WCI   8
LAMAR          FAIR      15   5  64 CALM      29.91S
SPRINGFIELD      N/A     12   7  80 NW12      29.87R WCI  -2
$$



USA.gov is the U.S. government's official web portal to all federal, state and local government web resources and services.